Location: Ambatotampy
(18.8181°S, 47.6186°E)
Time: 00:14:55
(UTC+00:00)

NOSS 3-2 (C) - Pass Details

Date: 21 January 2021
Orbit: 788 x 1424 km, 63.4° (Epoch: 24 February)

Event Time Altitude Azimuth Distance (km) Brightness Sun altitude
Rises 02:04:37 0° 217° (SW) 3,484 6.3 -6.1°
Reaches altitude 10° 02:07:20 10° 224° (SW) 2,474 5.4 -5.5°
Maximum altitude 02:12:29 38° 291° (WNW) 1,206 3.6 -4.4°
Drops below altitude 10° 02:17:21 10° 359° (N) 2,338 5.3 -3.3°
Sets 02:19:53 0° 7° (N) 3,270 6.1 -2.8°
